Regional Weather Roundup
Issued by NWS

Home | Current Version | Previous Version | Text Only | Print | Product List | Glossary Off
Versions: 1 2 3 4 5 6 7 8 9 10 11 12 13 14 15 16 17 18 19 20 21 22 23 24 25 26 27 28 29 30 31 32 33 34 35 36 37 38 39 40 41 42 43 44 45 46 47 48 49 50

000
ASUS45 KBOI 291210
RWRID

IDAHO REGIONAL WEATHER ROUNDUP
NATIONAL WEATHER SERVICE BOISE ID
600 AM MDT SAT AUG 29 2015

NOTE: "FAIR" INDICATES FEW OR NO CLOUDS BELOW 12000 FEET
WITH NO SIGNIFICANT WEATHER AND/OR OBSTRUCTIONS TO VISIBILITY

IDZ012-014-291300-
SOUTHWEST IDAHO


CITY           SKY/WX    TMP DP  RH WIND       PRES   REMARKS
BOISE          CLOUDY    78  41  26 SE14      29.80S
CALDWELL       CLOUDY    70  43  37 SE7       29.81S
MOUNTAIN HOME  CLOUDY    73  42  32 SE10      29.83S
$$

IDZ016-017-291300-
SOUTHCENTRAL IDAHO


CITY           SKY/WX    TMP DP  RH WIND       PRES   REMARKS
JEROME         MOCLDY    68  40  35 NE12      29.94S
TWIN FALLS     MOCLDY    72  39  30 VRB7      29.93F
$$

IDZ019>023-291300-
SOUTHEAST IDAHO


CITY           SKY/WX    TMP DP  RH WIND       PRES   REMARKS
IDAHO FALLS    MOCLDY    61  48  62 N10       30.07R
POCATELLO      CLEAR     66  44  45 NW8       30.02S
REXBURG        MOCLDY    58  42  55 CALM      30.09R
$$

IDZ006-010-011-018-031-032-291300-
CENTRAL IDAHO MOUNTAINS


CITY           SKY/WX    TMP DP  RH WIND       PRES   REMARKS
MCCALL         MOCLDY    55  42  61 CALM      29.93F
HAILEY         MOCLDY    63  45  51 NW7       30.07F
STANLEY          N/A     57  38  48 SE7       30.10F
SALMON         CLOUDY    61  45  55 E5        29.96F
CHALLIS        CLOUDY    64  39  39 NW5       30.02F
$$

IDZ002-004-006-007-026-291300-
NORTHERN IDAHO


CITY           SKY/WX    TMP DP  RH WIND       PRES   REMARKS
LEWISTON       CLOUDY    73  47  39 E7        29.63F HAZE
LOWELL           N/A     61  53  75 N6        29.76F
COEUR D`ALENE  CLOUDY    66  46  48 NE14      29.70F
MULLAN PASS    CLOUDY    58  36  43 SE9G22    29.96F HAZE
$$



USA.gov is the U.S. government's official web portal to all federal, state and local government web resources and services.